This is the latest recevied weather packets stored in our database for station/object W2GLD-13. If no packets are shown the sender has not sent any weather packets the latest 10 day(s).
| Time | Temp. | Humidity | Pressure | Rain* | Wind** | Luminosity | Snow |
|---|---|---|---|---|---|---|---|
| 1777782606 | 3.33° C | 67% | 1015 hPa | 0 mm | - | - | - |
| 1777781706 | 3.33° C | 67% | 1015 hPa | 0 mm | - | - | - |
| 1777780805 | 3.89° C | 66% | 1015.2 hPa | 0 mm | - | - | - |
| 1777779905 | 3.89° C | 66% | 1015.2 hPa | 0 mm | - | - | - |
| 1777779005 | 3.89° C | 66% | 1015.2 hPa | 0 mm | - | - | - |
| 1777778105 | 3.89° C | 66% | 1015.2 hPa | 0 mm | - | - | - |
| 1777777205 | 5.56° C | 62% | 1015.2 hPa | 0 mm | - | - | - |
| 1777776306 | 5.56° C | 62% | 1015.2 hPa | 0 mm | - | - | - |
| 1777775406 | 5.56° C | 62% | 1015.2 hPa | 0 mm | - | - | - |
| 1777774506 | 5.56° C | 62% | 1015.2 hPa | 0 mm | - | - | - |
| 1777773605 | 7.78° C | 52% | 1014.9 hPa | 0 mm | - | - | - |
| 1777772705 | 7.78° C | 52% | 1014.9 hPa | 0 mm | - | - | - |
| 1777771805 | 7.78° C | 52% | 1014.9 hPa | 0 mm | - | - | - |
| 1777770905 | 7.78° C | 52% | 1014.9 hPa | 0 mm | - | - | - |
| 1777770005 | 8.33° C | 48% | 1014.7 hPa | 0 mm | - | - | - |
| 1777769105 | 8.33° C | 48% | 1014.7 hPa | 0 mm | - | - | - |
| 1777768205 | 8.33° C | 48% | 1014.7 hPa | 0 mm | - | - | - |
| 1777767306 | 8.33° C | 48% | 1014.7 hPa | 0 mm | - | - | - |
| 1777766406 | 8.89° C | 47% | 1015 hPa | 0 mm | - | - | - |
| 1777765506 | 8.89° C | 47% | 1015 hPa | 0 mm | - | - | - |
| 1777764606 | 8.89° C | 47% | 1015 hPa | 0 mm | - | - | - |
| 1777763705 | 8.89° C | 47% | 1015 hPa | 0 mm | - | - | - |
| 1777762805 | 8.33° C | 46% | 1015.1 hPa | 0 mm | - | - | - |
| 1777761905 | 8.33° C | 46% | 1015.1 hPa | 0 mm | - | - | - |
| 1777761005 | 8.33° C | 46% | 1015.1 hPa | 0 mm | - | - | - |
* Rain latest hour (hover to see other rain measurements)
** Current wind speed in m/s (hover to see current wind gust speed)